When you browse on this site, cookies collect data to enhance your experience and personalize the content and advertising you see.
Visit our Privacy Policy to learn more. By continuing to use the site, you agree to this use of cookies and data.
  • In Lithuania
  • List of Countries
  • For 7 days
  • Water Temperature
  • Satellite Maps
  • Weather Map
  • Weather Widgets
  • user-avatar
    Login

    Hourly Weather Franceville

    Today, 22 January, Tuesday

    Time Temperature Precipitation Wind Pressure Humidity
    00:00 +26°C° 1.2 mm 1 mps 732 mmHg 84%
    01:00 +26°C° 1.2 mm 1 mps 732 mmHg 88%
    02:00 +26°C° 0.3 mm 1 mps 732 mmHg 90%
    03:00 +25°C° 0.3 mm 1 mps 731 mmHg 91%
    04:00 +25°C° 0.3 mm 1 mps 731 mmHg 92%
    05:00 +25°C° 0 mm 1 mps 732 mmHg 92%
    06:00 +25°C° 0 mm 1 mps 732 mmHg 91%
    07:00 +25°C° 0 mm 1 mps 732 mmHg 91%
    08:00 +27°C° 0 mm 1 mps 732 mmHg 80%
    09:00 +30°C° 0 mm 1 mps 733 mmHg 70%
    10:00 +32°C° 0 mm 2 mps 733 mmHg 59%
    11:00 +34°C° 0 mm 1 mps 733 mmHg 52%
    12:00 +37°C° 0 mm 1 mps 732 mmHg 44%
    13:00 +37°C° 0 mm 0 mps 732 mmHg 37%
    14:00 +36°C° 0 mm 0 mps 731 mmHg 38%
    15:00 +35°C° 0 mm 0 mps 730 mmHg 39%
    16:00 +34°C° 0 mm 0 mps 729 mmHg 41%
    17:00 +34°C° 0.4 mm 1 mps 729 mmHg 52%
    18:00 +31°C° 0.4 mm 1 mps 730 mmHg 64%
    19:00 +29°C° 0.4 mm 2 mps 730 mmHg 75%
    20:00 +28°C° 0.5 mm 2 mps 730 mmHg 79%
    21:00 +27°C° 0.5 mm 2 mps 731 mmHg 82%
    22:00 +27°C° 0.5 mm 2 mps 732 mmHg 86%
    23:00 +26°C° 0.2 mm 1 mps 732 mmHg 88%

    Tomorrow, 23 January, Wednesday

    Time Temperature Precipitation Wind Pressure Humidity
    00:00 +26°C° 0.2 mm 1 mps 732 mmHg 89%
    01:00 +25°C° 0.2 mm 1 mps 732 mmHg 91%
    02:00 +25°C° 0.2 mm 1 mps 731 mmHg 92%
    03:00 +25°C° 0.2 mm 1 mps 731 mmHg 93%
    04:00 +24°C° 0.2 mm 1 mps 731 mmHg 94%
    05:00 +25°C° 0.1 mm 1 mps 732 mmHg 94%
    06:00 +25°C° 0.1 mm 1 mps 732 mmHg 94%
    07:00 +25°C° 0.1 mm 1 mps 732 mmHg 93%
    08:00 +25°C° 0.4 mm 1 mps 732 mmHg 93%
    09:00 +26°C° 0.4 mm 1 mps 733 mmHg 92%
    10:00 +26°C° 0.4 mm 2 mps 733 mmHg 91%
    11:00 +27°C° 0 mm 1 mps 732 mmHg 88%
    12:00 +27°C° 0 mm 1 mps 732 mmHg 85%
    13:00 +28°C° 0 mm 1 mps 731 mmHg 81%
    14:00 +29°C° 0 mm 1 mps 730 mmHg 79%
    15:00 +29°C° 0 mm 1 mps 729 mmHg 76%
    16:00 +30°C° 0 mm 1 mps 729 mmHg 73%
    17:00 +29°C° 0 mm 1 mps 729 mmHg 77%
    18:00 +26°C° 0 mm 0 mps 730 mmHg 81%
    19:00 +25°C° 0 mm 0 mps 730 mmHg 85%
    20:00 +24°C° 0.2 mm 0 mps 731 mmHg 86%
    21:00 +24°C° 0.2 mm 0 mps 731 mmHg 88%
    22:00 +26°C° 0.2 mm 1 mps 732 mmHg 89%
    23:00 +25°C° 0 mm 1 mps 732 mmHg 89%

    Day after tomorrow, 24 January, Thursday

    Time Temperature Precipitation Wind Pressure Humidity
    00:00 +25°C° 0 mm 1 mps 731 mmHg 90%
    01:00 +25°C° 0 mm 1 mps 731 mmHg 90%
    02:00 +25°C° 0 mm 1 mps 730 mmHg 91%
    03:00 +25°C° 0 mm 1 mps 730 mmHg 92%
    04:00 +24°C° 0 mm 1 mps 730 mmHg 93%
    05:00 +24°C° 0 mm 1 mps 730 mmHg 93%
    06:00 +25°C° 0 mm 1 mps 730 mmHg 93%
    07:00 +23°C° 0 mm 0 mps 730 mmHg 93%
    08:00 +27°C° 0 mm 1 mps 731 mmHg 82%
    09:00 +29°C° 0 mm 1 mps 731 mmHg 70%
    10:00 +32°C° 0 mm 2 mps 732 mmHg 58%
    11:00 +33°C° 0 mm 1 mps 731 mmHg 53%
    12:00 +34°C° 0 mm 1 mps 730 mmHg 48%
    13:00 +35°C° 0 mm 1 mps 729 mmHg 43%
    14:00 +36°C° 0 mm 1 mps 729 mmHg 41%
    15:00 +36°C° 0 mm 1 mps 728 mmHg 39%
    16:00 +37°C° 0 mm 1 mps 727 mmHg 38%
    17:00 +32°C° 0 mm 0 mps 728 mmHg 45%
    18:00 +30°C° 0 mm 0 mps 728 mmHg 52%
    19:00 +28°C° 0 mm 0 mps 728 mmHg 59%
    20:00 +27°C° 0.3 mm 0 mps 729 mmHg 66%
    21:00 +28°C° 0.3 mm 1 mps 729 mmHg 73%
    22:00 +27°C° 0.3 mm 1 mps 730 mmHg 80%
    23:00 +26°C° 0.2 mm 1 mps 730 mmHg 82%

    25 January, Friday

    Time Temperature Precipitation Wind Pressure Humidity
    00:00 +26°C° 0.2 mm 1 mps 730 mmHg 84%
    01:00 +26°C° 0.2 mm 1 mps 730 mmHg 87%
    02:00 +26°C° 0 mm 1 mps 730 mmHg 88%
    03:00 +23°C° 0 mm 0 mps 730 mmHg 89%
    04:00 +23°C° 0 mm 0 mps 730 mmHg 89%
    05:00 +23°C° 0 mm 0 mps 730 mmHg 90%
    06:00 +25°C° 0 mm 1 mps 731 mmHg 90%
    07:00 +25°C° 0 mm 1 mps 731 mmHg 90%
    08:00 +27°C° 0 mm 1 mps 731 mmHg 80%
    09:00 +30°C° 0 mm 1 mps 732 mmHg 69%
    10:00 +32°C° 0 mm 1 mps 732 mmHg 59%
    11:00 +34°C° 0 mm 1 mps 731 mmHg 52%
    12:00 +36°C° 0 mm 1 mps 730 mmHg 45%
    13:00 +39°C° 0 mm 1 mps 729 mmHg 38%
    14:00 +39°C° 0 mm 1 mps 729 mmHg 38%
    15:00 +39°C° 0 mm 1 mps 728 mmHg 37%
    16:00 +37°C° 0 mm 1 mps 727 mmHg 37%
    17:00 +35°C° 0 mm 1 mps 728 mmHg 43%
    18:00 +33°C° 0 mm 1 mps 728 mmHg 50%
    19:00 +29°C° 0 mm 0 mps 729 mmHg 56%
    20:00 +30°C° 0.8 mm 1 mps 729 mmHg 67%
    21:00 +28°C° 0.8 mm 1 mps 730 mmHg 77%
    22:00 +27°C° 0.8 mm 1 mps 730 mmHg 87%
    23:00 +27°C° 0.5 mm 1 mps 730 mmHg 87%

    26 January, Saturday

    Time Temperature Precipitation Wind Pressure Humidity
    00:00 +26°C° 0.5 mm 1 mps 730 mmHg 88%
    01:00 +26°C° 0.5 mm 1 mps 730 mmHg 88%
    02:00 +26°C° 1 mm 1 mps 730 mmHg 89%
    03:00 +26°C° 1 mm 1 mps 730 mmHg 90%
    04:00 +25°C° 1 mm 1 mps 730 mmHg 90%
    05:00 +26°C° 0.1 mm 1 mps 730 mmHg 90%
    06:00 +26°C° 0.1 mm 1 mps 731 mmHg 90%
    07:00 +26°C° 0.1 mm 1 mps 732 mmHg 90%
    08:00 +27°C° 0 mm 1 mps 732 mmHg 87%
    09:00 +27°C° 0 mm 1 mps 732 mmHg 83%
    10:00 +28°C° 0 mm 1 mps 733 mmHg 80%
    11:00 +29°C° 1.4 mm 1 mps 732 mmHg 78%
    12:00 +28°C° 1.4 mm 0 mps 732 mmHg 77%
    13:00 +28°C° 1.4 mm 0 mps 731 mmHg 75%
    14:00 +30°C° 0.4 mm 1 mps 731 mmHg 76%
    15:00 +29°C° 0.4 mm 1 mps 730 mmHg 77%
    16:00 +29°C° 0.4 mm 1 mps 729 mmHg 77%
    17:00 +28°C° 0 mm 1 mps 730 mmHg 81%
    18:00 +27°C° 0 mm 1 mps 730 mmHg 85%
    19:00 +27°C° 0 mm 1 mps 730 mmHg 88%
    20:00 +26°C° 0 mm 1 mps 731 mmHg 90%
    21:00 +24°C° 0 mm 0 mps 731 mmHg 91%
    22:00 +24°C° 0 mm 0 mps 732 mmHg 92%
    23:00 +25°C° 0 mm 1 mps 732 mmHg 93%

    27 January, Sunday

    Time Temperature Precipitation Wind Pressure Humidity
    00:00 +25°C° 0 mm 1 mps 731 mmHg 93%
    01:00 +25°C° 0 mm 1 mps 731 mmHg 94%
    02:00 +24°C° 0 mm 1 mps 731 mmHg 94%
    03:00 +22°C° 0 mm 0 mps 731 mmHg 95%
    04:00 +22°C° 0 mm 0 mps 731 mmHg 96%
    05:00 +24°C° 0 mm 1 mps 731 mmHg 95%
    06:00 +24°C° 0 mm 1 mps 731 mmHg 94%
    07:00 +25°C° 0 mm 1 mps 732 mmHg 93%
    08:00 +27°C° 0 mm 1 mps 732 mmHg 82%
    09:00 +29°C° 0 mm 1 mps 732 mmHg 72%
    10:00 +31°C° 0 mm 2 mps 732 mmHg 61%
    11:00 +34°C° 0 mm 2 mps 732 mmHg 55%
    12:00 +35°C° 0 mm 1 mps 731 mmHg 48%
    13:00 +36°C° 0 mm 1 mps 730 mmHg 42%
    14:00 +36°C° 0 mm 1 mps 729 mmHg 44%
    15:00 +35°C° 0 mm 1 mps 729 mmHg 47%
    16:00 +34°C° 0 mm 1 mps 728 mmHg 49%
    17:00 +33°C° 0 mm 1 mps 729 mmHg 54%
    18:00 +32°C° 0 mm 1 mps 729 mmHg 59%
    19:00 +30°C° 0 mm 1 mps 730 mmHg 64%
    20:00 +29°C° 0.1 mm 1 mps 730 mmHg 69%
    21:00 +28°C° 0.1 mm 1 mps 730 mmHg 75%
    22:00 +27°C° 0.1 mm 1 mps 731 mmHg 81%
    23:00 +27°C° 0.2 mm 1 mps 731 mmHg 84%
    Show more